INTELSAT 31 (IS-31)

Last updated on Sat Dec 13 2025 00:02:49 GMT+0000 (Coordinated Universal Time)

1 41581U 16035A 25345.90085034 -.00000142 00000+0 00000+0 0 9998 2 41581 0.0172 268.6419 0001989 307.2662 94.1931 1.00272085 34807
UTC large
Height (km)
Speed (km/s)
/
Latitude / Longitude
Inclination (degrees)
Orbital Period (minutes)
Azimuth
Elevation
Range (km)
Doppler Factor

Next 0 passes for location: London (51.5072 / 0.1276)

Sorry there are no passes over London.